When you browse on this site, cookies collect data to enhance your experience and personalize the content and advertising you see.
Visit our Privacy Policy to learn more. By continuing to use the site, you agree to this use of cookies and data.
  • En España
  • Lista de países
  • Para 7 días
  • Temperatura del agua
  • Mapa Satelital
  • El tiempo en el mapa
  • Informadores
  • user-avatar
    Iniciar sesión

    Tiempo cada hora Bangi

    Hoy, 18 Junio, Martes

    Tiempo Temperatura Precipitaciones Viento Presión Humedad
    00:00 +22°C° 0.5 mm 0 mps 730 mmHg 96%
    01:00 +22°C° 0.5 mm 0 mps 730 mmHg 97%
    02:00 +24°C° 0.1 mm 1 mps 730 mmHg 97%
    03:00 +24°C° 0.1 mm 1 mps 730 mmHg 97%
    04:00 +24°C° 0.1 mm 1 mps 729 mmHg 97%
    05:00 +24°C° 0 mm 1 mps 730 mmHg 97%
    06:00 +22°C° 0 mm 0 mps 730 mmHg 96%
    07:00 +22°C° 0 mm 0 mps 730 mmHg 96%
    08:00 +25°C° 0 mm 0 mps 731 mmHg 87%
    09:00 +27°C° 0 mm 0 mps 731 mmHg 78%
    10:00 +30°C° 0 mm 0 mps 731 mmHg 69%
    11:00 +31°C° 0 mm 0 mps 731 mmHg 65%
    12:00 +31°C° 0 mm 0 mps 730 mmHg 61%
    13:00 +34°C° 0 mm 1 mps 729 mmHg 57%
    14:00 +33°C° 0.4 mm 1 mps 729 mmHg 61%
    15:00 +33°C° 0.4 mm 1 mps 728 mmHg 66%
    16:00 +32°C° 0.4 mm 1 mps 728 mmHg 70%
    17:00 +30°C° 1.5 mm 1 mps 728 mmHg 77%
    18:00 +28°C° 1.5 mm 1 mps 728 mmHg 84%
    19:00 +26°C° 1.5 mm 1 mps 728 mmHg 91%
    20:00 +23°C° 0 mm 0 mps 729 mmHg 91%
    21:00 +23°C° 0 mm 0 mps 729 mmHg 91%
    22:00 +23°C° 0 mm 0 mps 729 mmHg 91%
    23:00 +22°C° 0.1 mm 0 mps 729 mmHg 92%

    Mañana, 19 Junio, Miércoles

    Tiempo Temperatura Precipitaciones Viento Presión Humedad
    00:00 +22°C° 0.1 mm 0 mps 729 mmHg 93%
    01:00 +22°C° 0.1 mm 0 mps 729 mmHg 94%
    02:00 +22°C° 0.2 mm 0 mps 729 mmHg 94%
    03:00 +22°C° 0.2 mm 0 mps 729 mmHg 95%
    04:00 +21°C° 0.2 mm 0 mps 728 mmHg 96%
    05:00 +22°C° 0 mm 0 mps 729 mmHg 96%
    06:00 +23°C° 0 mm 0 mps 730 mmHg 95%
    07:00 +23°C° 0 mm 0 mps 730 mmHg 95%
    08:00 +25°C° 0.6 mm 0 mps 730 mmHg 88%
    09:00 +27°C° 0.6 mm 0 mps 730 mmHg 82%
    10:00 +29°C° 0.6 mm 0 mps 730 mmHg 76%
    11:00 +30°C° 1.6 mm 0 mps 730 mmHg 74%
    12:00 +32°C° 1.6 mm 1 mps 729 mmHg 72%
    13:00 +32°C° 1.6 mm 1 mps 728 mmHg 69%
    14:00 +31°C° 1.5 mm 1 mps 728 mmHg 75%
    15:00 +31°C° 1.5 mm 1 mps 727 mmHg 81%
    16:00 +30°C° 1.5 mm 1 mps 727 mmHg 86%
    17:00 +29°C° 0.3 mm 1 mps 727 mmHg 88%
    18:00 +27°C° 0.3 mm 1 mps 728 mmHg 90%
    19:00 +26°C° 0.3 mm 1 mps 728 mmHg 91%
    20:00 +26°C° 0.4 mm 1 mps 728 mmHg 92%
    21:00 +25°C° 0.4 mm 1 mps 729 mmHg 92%
    22:00 +25°C° 0.4 mm 1 mps 729 mmHg 92%
    23:00 +23°C° 0.4 mm 0 mps 729 mmHg 93%

    Pasado mañana, 20 Junio, Jueves

    Tiempo Temperatura Precipitaciones Viento Presión Humedad
    00:00 +23°C° 0.4 mm 0 mps 729 mmHg 93%
    01:00 +23°C° 0.4 mm 0 mps 729 mmHg 93%
    02:00 +23°C° 1.5 mm 0 mps 729 mmHg 94%
    03:00 +22°C° 1.5 mm 0 mps 729 mmHg 96%
    04:00 +22°C° 1.5 mm 0 mps 728 mmHg 97%
    05:00 +23°C° 0.5 mm 0 mps 729 mmHg 97%
    06:00 +23°C° 0.5 mm 0 mps 729 mmHg 97%
    07:00 +23°C° 0.5 mm 0 mps 730 mmHg 96%
    08:00 +26°C° 0.3 mm 1 mps 730 mmHg 91%
    09:00 +28°C° 0.3 mm 1 mps 730 mmHg 86%
    10:00 +29°C° 0.3 mm 2 mps 730 mmHg 80%
    11:00 +29°C° 1.8 mm 1 mps 730 mmHg 82%
    12:00 +29°C° 1.8 mm 1 mps 729 mmHg 84%
    13:00 +30°C° 1.8 mm 1 mps 728 mmHg 86%
    14:00 +29°C° 1.1 mm 1 mps 728 mmHg 87%
    15:00 +29°C° 1.1 mm 1 mps 728 mmHg 89%
    16:00 +28°C° 1.1 mm 2 mps 727 mmHg 90%
    17:00 +27°C° 0.3 mm 1 mps 728 mmHg 91%
    18:00 +26°C° 0.3 mm 1 mps 728 mmHg 93%
    19:00 +23°C° 0.3 mm 0 mps 729 mmHg 94%
    20:00 +23°C° 0.1 mm 0 mps 729 mmHg 93%
    21:00 +23°C° 0.1 mm 0 mps 729 mmHg 93%
    22:00 +23°C° 0.1 mm 0 mps 730 mmHg 92%
    23:00 +23°C° 0 mm 0 mps 729 mmHg 93%

    21 Junio, Viernes

    Tiempo Temperatura Precipitaciones Viento Presión Humedad
    00:00 +23°C° 0 mm 0 mps 729 mmHg 93%
    01:00 +22°C° 0 mm 0 mps 729 mmHg 94%
    02:00 +24°C° 0 mm 1 mps 729 mmHg 94%
    03:00 +24°C° 0 mm 1 mps 729 mmHg 94%
    04:00 +24°C° 0 mm 1 mps 729 mmHg 95%
    05:00 +25°C° 0 mm 1 mps 729 mmHg 94%
    06:00 +23°C° 0 mm 0 mps 730 mmHg 94%
    07:00 +23°C° 0 mm 0 mps 730 mmHg 93%
    08:00 +23°C° 0.2 mm 0 mps 730 mmHg 93%
    09:00 +25°C° 0.2 mm 1 mps 730 mmHg 94%
    10:00 +26°C° 0.2 mm 1 mps 731 mmHg 94%
    11:00 +27°C° 0.1 mm 1 mps 730 mmHg 87%
    12:00 +28°C° 0.1 mm 1 mps 729 mmHg 80%
    13:00 +29°C° 0.1 mm 2 mps 729 mmHg 74%
    14:00 +30°C° 0.1 mm 1 mps 728 mmHg 74%
    15:00 +30°C° 0.1 mm 1 mps 728 mmHg 73%
    16:00 +31°C° 0.1 mm 1 mps 727 mmHg 73%
    17:00 +27°C° 0.5 mm 0 mps 728 mmHg 78%
    18:00 +25°C° 0.5 mm 0 mps 728 mmHg 83%
    19:00 +24°C° 0.5 mm 0 mps 728 mmHg 88%
    20:00 +23°C° 0 mm 0 mps 729 mmHg 89%
    21:00 +23°C° 0 mm 0 mps 729 mmHg 89%
    22:00 +23°C° 0 mm 0 mps 729 mmHg 90%
    23:00 +23°C° 0 mm 0 mps 729 mmHg 91%

    22 Junio, Sábado

    Tiempo Temperatura Precipitaciones Viento Presión Humedad
    00:00 +22°C° 0 mm 0 mps 728 mmHg 92%
    01:00 +22°C° 0 mm 0 mps 728 mmHg 93%
    02:00 +22°C° 0 mm 0 mps 728 mmHg 93%
    03:00 +21°C° 0 mm 0 mps 728 mmHg 94%
    04:00 +21°C° 0 mm 0 mps 728 mmHg 94%
    05:00 +22°C° 0.2 mm 0 mps 729 mmHg 94%
    06:00 +22°C° 0.2 mm 0 mps 729 mmHg 93%
    07:00 +25°C° 0.2 mm 1 mps 730 mmHg 92%
    08:00 +26°C° 1 mm 1 mps 730 mmHg 91%
    09:00 +27°C° 1 mm 1 mps 730 mmHg 90%
    10:00 +28°C° 1 mm 2 mps 731 mmHg 89%
    11:00 +28°C° 1.4 mm 1 mps 730 mmHg 90%
    12:00 +27°C° 1.4 mm 1 mps 729 mmHg 90%
    13:00 +25°C° 1.4 mm 0 mps 728 mmHg 90%
    14:00 +25°C° 0 mm 0 mps 728 mmHg 90%
    15:00 +25°C° 0 mm 0 mps 728 mmHg 89%
    16:00 +25°C° 0 mm 0 mps 727 mmHg 88%
    17:00 +24°C° 0 mm 0 mps 727 mmHg 90%
    18:00 +24°C° 0 mm 0 mps 728 mmHg 92%
    19:00 +23°C° 0 mm 0 mps 728 mmHg 95%
    20:00 +22°C° 0 mm 0 mps 728 mmHg 94%
    21:00 +22°C° 0 mm 0 mps 728 mmHg 94%
    22:00 +22°C° 0 mm 0 mps 729 mmHg 94%
    23:00 +21°C° 0 mm 0 mps 729 mmHg 95%

    23 Junio, Domingo

    Tiempo Temperatura Precipitaciones Viento Presión Humedad
    00:00 +21°C° 0 mm 0 mps 728 mmHg 96%
    01:00 +23°C° 0 mm 1 mps 728 mmHg 97%
    02:00 +21°C° 0.3 mm 0 mps 728 mmHg 96%
    03:00 +21°C° 0.3 mm 0 mps 728 mmHg 96%
    04:00 +21°C° 0.3 mm 0 mps 728 mmHg 96%
    05:00 +21°C° 0.4 mm 0 mps 729 mmHg 95%
    06:00 +22°C° 0.4 mm 0 mps 729 mmHg 95%
    07:00 +22°C° 0.4 mm 0 mps 730 mmHg 95%
    08:00 +25°C° 0.4 mm 1 mps 730 mmHg 91%
    09:00 +27°C° 0.4 mm 1 mps 730 mmHg 86%
    10:00 +28°C° 0.4 mm 2 mps 730 mmHg 82%
    11:00 +29°C° 2 mm 1 mps 729 mmHg 83%
    12:00 +29°C° 2 mm 1 mps 729 mmHg 83%
    13:00 +30°C° 2 mm 1 mps 728 mmHg 84%
    14:00 +29°C° 1.8 mm 1 mps 728 mmHg 86%
    15:00 +28°C° 1.7 mm 1 mps 727 mmHg 89%
    16:00 +28°C° 1.7 mm 1 mps 727 mmHg 91%
    17:00 +27°C° 0.6 mm 1 mps 727 mmHg 92%
    18:00 +24°C° 0.6 mm 0 mps 728 mmHg 92%
    19:00 +23°C° 0.6 mm 0 mps 728 mmHg 92%
    20:00 +23°C° 0.3 mm 0 mps 728 mmHg 93%
    21:00 +23°C° 0.3 mm 0 mps 728 mmHg 94%
    22:00 +24°C° 0.3 mm 1 mps 729 mmHg 96%
    23:00 +24°C° 0 mm 1 mps 729 mmHg 96%
    Mostrar más